Weather History for KPCZ - March, 2014

Change the Weather History Date:

Monday, March 10, 2014

  Actual Average Record
Temperature  
Mean Temperature 44 °F -  
Max Temperature 57 °F 37 °F 64 °F (2012)
Min Temperature 30 °F 19 °F -10 °F (1972)
Degree Days  
Heating Degree Days 22    
Moisture  
Dew Point 30 °F    
Average Humidity 60    
Maximum Humidity 87    
Minimum Humidity 33    
Precipitation  
Precipitation 0.00 in - - ()
Sea Level Pressure  
Sea Level Pressure 29.59 in    
Wind  
Wind Speed 4 mph (West)    
Max Wind Speed 17 mph    
Max Gust Speed 25 mph    
Visibility 10 miles    
Events      
Averages and records for this station are not official NWS values.
T = Trace of Precipitation, MM = Missing Value Source: NWS Daily Summary

Daily Weather History Graph

Daily Weather History Graph

Search for Another Location

Airport or City:

Trip Planner

Search our weather history database for the weather conditions in past years. The results will help you decide how hot, cold, wet, or windy it might be!

Date:

Astronomy

Mar. 10, 2014 Rise Set
Actual Time 7:17 AM CDT 6:55 PM CDT
Civil Twilight 6:48 AM CDT 7:24 PM CDT
Nautical Twilight 6:14 AM CDT 7:58 PM CDT
Astronomical Twilight 5:40 AM CDT 8:32 PM CDT
Moon 1:30 PM CDT (3/10) 3:38 AM CDT (3/10)
Length of Visible Light 12h 36m
Length of Day
11h 38m
Waxing Gibbous, 70% of the Moon is Illuminated
Mar 10
Waxing Gibbous
Mar 16
Full
Mar 23
Last Quarter
Mar 30
New
Apr 7
First Quarter

Hourly Weather History & Observations

Time (CDT) Temp. Windchill Dew Point Humidity Pressure Visibility Wind Dir Wind Speed Gust Speed Precip Events Conditions
12:17 AM 35.6 °F - 28.4 °F 75% 29.66 in 10.0 mi Calm Calm - N/A   Clear
12:38 AM 35.6 °F - 28.4 °F 75% 29.66 in 10.0 mi Calm Calm - N/A   Clear
12:57 AM 35.6 °F - 28.4 °F 75% 29.66 in 10.0 mi Calm Calm - N/A   Clear
1:17 AM 33.8 °F - 28.4 °F 81% 29.66 in 10.0 mi Calm Calm - N/A   Clear
1:40 AM 33.8 °F - 28.4 °F 81% 29.66 in 10.0 mi Calm Calm - N/A   Clear
1:59 AM 32.0 °F - 28.4 °F 87% 29.65 in 10.0 mi Calm Calm - N/A   Clear
2:17 AM 33.8 °F - 28.4 °F 81% 29.66 in 10.0 mi Calm Calm - N/A   Clear
2:57 AM 32.0 °F - 28.4 °F 87% 29.65 in 10.0 mi Calm Calm - N/A   Clear
3:17 AM 32.0 °F 28.7 °F 28.4 °F 87% 29.64 in 10.0 mi SW 3.5 mph - N/A   Clear
3:39 AM 35.6 °F - 30.2 °F 81% 29.64 in 10.0 mi Calm Calm - N/A   Clear
3:57 AM 33.8 °F - 28.4 °F 81% 29.63 in 10.0 mi Calm Calm - N/A   Clear
4:17 AM 32.0 °F - 28.4 °F 87% 29.62 in 10.0 mi Calm Calm - N/A   Clear
5:37 AM 32.0 °F - 28.4 °F 87% 29.60 in 7.0 mi Calm Calm - N/A   Clear
6:00 AM 33.8 °F 29.6 °F 30.2 °F 87% 29.60 in 10.0 mi SW 4.6 mph - N/A   Clear
6:20 AM 33.8 °F - 30.2 °F 87% 29.59 in 10.0 mi Calm Calm - N/A   Clear
6:39 AM 30.2 °F 26.7 °F 26.6 °F 86% 29.60 in 7.0 mi WSW 3.5 mph - N/A   Clear
6:58 AM 33.8 °F 29.6 °F 30.2 °F 87% 29.60 in 10.0 mi WSW 4.6 mph - N/A   Clear
7:18 AM 33.8 °F 29.6 °F 30.2 °F 87% 29.60 in 10.0 mi WSW 4.6 mph - N/A   Clear
7:37 AM 35.6 °F 31.7 °F 30.2 °F 81% 29.60 in 10.0 mi WSW 4.6 mph - N/A   Clear
7:57 AM 35.6 °F 31.7 °F 30.2 °F 81% 29.60 in 10.0 mi WSW 4.6 mph - N/A   Clear
8:17 AM 35.6 °F - 30.2 °F 81% 29.60 in 10.0 mi Calm Calm - N/A   Clear
8:37 AM 37.4 °F 33.8 °F 30.2 °F 75% 29.59 in 10.0 mi WSW 4.6 mph - N/A   Clear
8:59 AM 39.2 °F 35.0 °F 32.0 °F 75% 29.58 in 10.0 mi WSW 5.8 mph - N/A   Clear
9:18 AM 42.8 °F 39.3 °F 32.0 °F 66% 29.58 in 10.0 mi WSW 5.8 mph - N/A   Clear
9:58 AM 44.6 °F 39.7 °F 33.8 °F 66% 29.58 in 10.0 mi WSW 9.2 mph - N/A   Clear
11:18 AM 48.2 °F - 33.8 °F 58% 29.56 in 10.0 mi WSW 9.2 mph - N/A   Clear
11:39 AM 50.0 °F - 33.8 °F 54% 29.56 in 10.0 mi West 9.2 mph - N/A   Clear
11:57 AM 51.8 °F - 33.8 °F 50% 29.56 in 10.0 mi West 10.4 mph - N/A   Clear
12:20 PM 51.8 °F - 33.8 °F 50% 29.56 in 10.0 mi West 15.0 mph - N/A   Clear
12:40 PM 53.6 °F - 32.0 °F 44% 29.56 in 10.0 mi West 16.1 mph 25.3 mph N/A   Clear
12:57 PM 53.6 °F - 32.0 °F 44% 29.55 in 10.0 mi West 17.3 mph 24.2 mph N/A   Clear
1:37 PM 53.6 °F - 30.2 °F 41% 29.54 in 10.0 mi West 15.0 mph 19.6 mph N/A   Clear
1:57 PM 55.4 °F - 30.2 °F 38% 29.53 in 10.0 mi West 13.8 mph 20.7 mph N/A   Clear
2:17 PM 55.4 °F - 30.2 °F 38% 29.53 in 10.0 mi West 10.4 mph 13.8 mph N/A   Clear
2:38 PM 57.2 °F - 30.2 °F 36% 29.53 in 10.0 mi West 12.7 mph 19.6 mph N/A   Clear
2:58 PM 57.2 °F - 30.2 °F 36% 29.53 in 10.0 mi West 11.5 mph 21.9 mph N/A   Clear
3:17 PM 55.4 °F - 30.2 °F 38% 29.53 in 10.0 mi West 15.0 mph 19.6 mph N/A   Clear
3:37 PM 57.2 °F - 30.2 °F 36% 29.54 in 10.0 mi West 13.8 mph 19.6 mph N/A   Clear
4:00 PM 57.2 °F - 28.4 °F 33% 29.55 in 10.0 mi West 11.5 mph 18.4 mph N/A   Clear
4:17 PM 55.4 °F - 30.2 °F 38% 29.55 in 10.0 mi West 9.2 mph 23.0 mph N/A   Clear
4:37 PM 55.4 °F - 28.4 °F 36% 29.55 in 10.0 mi West 11.5 mph 19.6 mph N/A   Clear
4:57 PM 55.4 °F - 28.4 °F 36% 29.55 in 10.0 mi WNW 8.1 mph 17.3 mph N/A   Clear
5:17 PM 53.6 °F - 28.4 °F 38% 29.55 in 10.0 mi West 11.5 mph - N/A   Clear
5:37 PM 53.6 °F - 28.4 °F 38% 29.56 in 10.0 mi West 9.2 mph - N/A   Clear
6:00 PM 51.8 °F - 30.2 °F 44% 29.56 in 10.0 mi West 8.1 mph - N/A   Clear
6:17 PM 51.8 °F - 28.4 °F 41% 29.56 in 10.0 mi West 8.1 mph - N/A   Clear
6:37 PM 50.0 °F - 28.4 °F 43% 29.57 in 10.0 mi West 6.9 mph - N/A   Clear
6:57 PM 50.0 °F - 28.4 °F 43% 29.58 in 10.0 mi West 6.9 mph - N/A   Clear
7:17 PM 48.2 °F - 28.4 °F 46% 29.59 in 10.0 mi West 6.9 mph - N/A   Clear
7:38 PM 48.2 °F - 28.4 °F 46% 29.60 in 10.0 mi West 6.9 mph - N/A   Clear
7:58 PM 46.4 °F 42.9 °F 28.4 °F 50% 29.61 in 10.0 mi West 6.9 mph - N/A   Clear
8:17 PM 46.4 °F 42.4 °F 28.4 °F 50% 29.61 in 10.0 mi West 8.1 mph - N/A   Clear
8:38 PM 46.4 °F 41.9 °F 30.2 °F 53% 29.62 in 10.0 mi West 9.2 mph - N/A   Clear
8:58 PM 46.4 °F 43.5 °F 30.2 °F 53% 29.62 in 10.0 mi West 5.8 mph - N/A   Clear
9:17 PM 46.4 °F 44.3 °F 30.2 °F 53% 29.63 in 10.0 mi West 4.6 mph - N/A   Clear
10:17 PM 46.4 °F 43.5 °F 30.2 °F 53% 29.63 in 10.0 mi West 5.8 mph - N/A   Scattered Clouds
10:37 PM 46.4 °F 44.3 °F 30.2 °F 53% 29.63 in 10.0 mi WNW 4.6 mph - N/A   Mostly Cloudy
10:57 PM 46.4 °F 44.3 °F 30.2 °F 53% 29.64 in 10.0 mi WNW 4.6 mph - N/A   Overcast
11:17 PM 46.4 °F 43.5 °F 30.2 °F 53% 29.64 in 10.0 mi West 5.8 mph - N/A   Mostly Cloudy
11:39 PM 44.6 °F 42.2 °F 30.2 °F 57% 29.64 in 10.0 mi West 4.6 mph - N/A   Mostly Cloudy
11:57 PM 46.4 °F 45.2 °F 30.2 °F 53% 29.64 in 10.0 mi West 3.5 mph - N/A   Overcast